Dewpoint
-2 -2 -1 -1 -4 -2 -0 0 1 1 1 1 -0 0 1 2 2 3 4 3 3 4 3 3 3 3 4 4 4 3 2 3 3 5 5 5 5 5 5 5 4 3 4 4 4 4 4 3 3 6 7 5 6 6
-2 -2 -1 -1 -4 -2 -1 1 2 1 1 2 -1 -1 1 2 2 2 4 2 2 4 3 4 3 3 4 4 3 3 2 3 3 4 4 4 5 5 5 6 3 5 4 5 4 5 3 2 3 5 5 7 6 5
-2 -2 -1 -1 -3 -1 -1 1 2 2 1 2 1 -1 -0 1 1 2 3 3 3 4 3 2 2 3 4 3 4 4 3 3 4 3 3 3 4 3 5 5 4 3 2 4 3 3 2 4 4 5 6 6 6 5
-3 -2 -1 -1 -3 -2 -1 1 2 3 2 2 2 1 0 1 2 3 4 4 4 4 2 1 1 3 2 2 3 4 4 4 4 2 3 4 4 3 4 4 3 3 3 3 3 2 3 4 4 5 5 5 6 5
-3 -2 -2 -1 -2 -3 -1 -1 2 3 3 4 3 3 3 4 4 4 4 4 3 3 3 0 1 2 2 3 3 2 2 3 1 1 1 3 3 2 3 3 4 3 4 4 4 3 3 3 4 5 5 5 5 5
-3 -3 -2 -1 -1 -4 -2 -1 0 3 3 4 4 4 5 5 5 5 6 4 4 3 4 4 2 3 3 2 3 3 2 2 1 1 1 0 2 3 5 5 3 3 3 2 3 3 4 4 4 4 5 5 5 5
-4 -3 -2 -1 -1 -2 -4 -2 -1 1 3 4 4 4 5 5 6 6 5 5 5 3 4 5 5 4 3 4 3 3 3 1 0 0 -1 1 1 2 3 5 1 1 1 2 2 2 3 3 3 4 5 5 5 4
-4 -3 -2 -1 -2 -5 -5 -3 -1 1 2 4 4 4 4 4 5 6 5 6 5 4 4 6 5 6 5 5 5 3 3 2 0 0 0 -1 -1 1 4 -1 1 0 -0 0 2 2 3 3 2 2 3 4 5 5
-4 -3 -2 -1 -1 -0 0 1 1 1 2 3 4 4 5 6 6 6 5 5 4 4 5 6 7 7 5 5 4 4 3 4 2 2 2 2 3 4 2 -0 1 1 -0 -0 1 2 2 2 2 2 2 2 2 3
-3 -3 -2 -2 -1 0 1 -0 1 1 2 3 4 6 7 6 5 5 5 5 5 5 5 6 6 6 5 5 4 3 2 2 4 1 2 4 5 -0 -1 -1 1 2 -0 -1 -1 -0 -0 1 2 2 2 2 2 2
-3 -3 -3 -2 -1 -1 -0 1 -0 1 2 3 6 6 6 5 6 5 5 5 4 5 5 5 6 5 5 6 4 3 3 3 5 3 3 5 5 1 -1 -2 1 1 1 -0 -1 -1 -1 -0 -0 0 1 2 1 2
-3 -3 -2 -2 -1 -1 -2 -1 1 -0 2 4 4 4 5 6 6 4 2 1 2 1 -0 2 3 5 6 6 5 4 4 4 4 -0 1 5 3 0 -0 -2 -1 2 1 0 0 -0 -1 -1 -0 -1 -1 -0 1 1
-3 -3 -2 -2 -2 -2 -3 -0 -0 -1 1 3 6 8 6 4 7 1 8 3 -1 -3 -3 -0 2 6 6 5 5 5 4 2 0 1 5 4 -0 -1 -1 -2 -3 -0 2 2 1 0 -0 -0 -0 -0 -1 -1 -1 1
-3 -2 -2 -2 -3 -3 -1 -0 -3 -1 2 6 6 8 3 1 0 -0 -0 -1 -3 -1 -2 -1 3 7 6 5 2 3 1 0 0 4 4 -1 1 -0 -1 -2 -3 -4 -1 1 1 1 0 -1 -0 -0 -1 -1 -1 -1
-2 -2 -2 -0 -1 -0 -2 -4 -2 0 3 6 5 7 1 -1 -0 -0 -0 -1 -2 -1 -1 1 2 3 1 1 -1 -1 0 1 2 3 -1 -2 1 1 -1 -1 -3 -4 -4 -1 1 0 1 -0 -1 -2 -1 -2 -1 -1
-2 -3 -1 -2 -3 -2 -5 -3 1 2 5 6 6 3 0 1 -1 -1 -0 0 -0 -1 0 -0 0 -0 1 -1 -1 0 2 3 2 1 -2 -2 2 1 1 0 -1 -4 -3 -3 -2 -2 -2 -2 -3 -3 -4 -4 -3 -1
-3 -3 -3 -3 -2 -4 -2 1 3 5 6 5 2 2 2 2 1 1 1 1 1 0 1 3 3 1 -0 2 5 3 4 2 -1 -2 -3 0 0 -0 -1 -2 -1 -3 -3 -3 -2 -3 -3 -3 -4 -5 -5 -4 -4 -2
-3 -3 -1 -1 -1 -2 -1 3 7 7 6 3 2 1 2 3 2 2 4 3 3 1 1 2 3 4 5 5 5 2 1 -1 -3 -3 -2 -0 0 1 -1 -2 -1 -2 -3 -3 -4 -4 -4 -4 -7 -7 -6 -6 -7 -6
-3 0 0 0 1 1 6 7 6 5 3 1 2 3 3 3 5 6 6 4 2 1 1 3 4 5 5 4 3 1 1 -2 -2 -2 -3 -1 -0 -0 -2 -2 -1 -2 -3 -3 -4 -6 -5 -5 -6 -7 -7 -7 -7 -6
1 1 3 3 2 3 6 7 6 6 4 4 4 4 4 5 6 5 4 4 2 1 2 4 4 3 4 3 3 3 -1 -1 -1 -2 -5 -5 -5 -5 -4 -4 -5 -3 -3 -3 -5 -6 -5 -6 -6 -7 -7 -6 -7 -6
1 1 2 2 5 5 7 5 5 5 4 3 5 5 5 6 5 5 4 4 1 1 3 3 3 4 3 2 3 3 2 -1 1 -2 -4 -6 -7 -7 -6 -6 -5 -6 -5 -5 -5 -5 -6 -6 -6 -6 -6 -6 -6 -6
3 2 4 4 8 9 9 8 7 6 5 4 5 5 5 5 5 5 5 2 3 3 2 2 2 1 1 2 1 3 2 1 1 -1 -5 -6 -6 -5 -5 -6 -6 -6 -6 -6 -5 -6 -5 -6 -5 -6 -5 -5 -5 -6
2 4 7 8 9 9 6 4 5 5 5 5 5 4 5 6 6 6 3 3 3 3 3 3 2 4 2 3 3 2 3 2 0 -3 -5 -5 -3 -5 -6 -6 -6 -6 -5 -6 -7 -7 -5 -5 -6 -5 -5 -4 -5 -5
1 7 8 8 8 7 6 5 5 6 6 4 4 4 5 6 6 3 2 3 3 3 4 3 3 -0 -1 -0 -1 0 2 0 -2 -4 -3 -2 -6 -6 -5 -6 -6 -6 -6 -6 -6 -6 -4 -4 -5 -4 -5 -5 -5 -6
6 4 5 3 5 6 4 4 5 5 5 5 5 4 6 6 5 3 3 2 2 2 3 3 3 1 -1 -1 -0 -1 -2 -1 -3 -1 -1 -4 -6 -5 -3 -3 -4 -5 -6 -5 -6 -5 -5 -3 -3 -3 -4 -4 -5 -5
5 4 4 1 3 5 3 4 4 5 5 5 4 6 6 6 5 4 3 2 2 4 5 4 3 1 0 -0 -2 -4 -3 -3 -2 -1 -3 -4 -3 -2 -1 -3 -6 -6 -6 -6 -5 -3 -2 -2 -2 -2 -3 -5 -6 -5
5 3 5 5 4 5 5 7 6 5 6 5 5 5 5 4 4 4 4 4 3 5 5 3 1 -2 -4 -6 -6 -5 -5 -4 -3 -4 -4 -2 -3 -4 -4 -5 -6 -6 -6 -6 -5 -3 -4 -4 -3 -4 -5 -5 -5 -5
4 5 3 4 4 4 5 6 6 6 5 5 5 5 2 2 4 4 3 3 3 0 -1 -3 -4 -5 -5 -6 -7 -7 -5 -5 -4 -4 -4 -3 -3 -5 -5 -5 -5 -7 -6 -6 -5 -5 -4 -3 -4 -5 -4 -4 -4 -5
5 5 5 5 5 5 6 5 4 5 6 5 4 3 4 5 4 3 3 2 -2 -3 -4 -5 -5 -5 -6 -6 -7 -7 -6 -7 -6 -5 -4 -1 -3 -5 -4 -3 -3 -5 -6 -6 -6 -4 -3 -4 -4 -4 -4 -4 -4 -4
2 4 5 4 4 4 4 6 6 8 7 6 6 6 5 4 1 -0 1 -1 -2 -4 -5 -6 -6 -6 -6 -7 -7 -7 -7 -7 -7 -7 -7 -7 -7 -6 -5 -5 -5 -5 -6 -6 -6 -5 -5 -5 -5 -4 -4 -4 -4 -4
4 4 4 3 3 4 6 7 7 7 7 7 7 5 5 0 -2 -3 -2 -2 -4 -5 -5 -6 -6 -6 -6 -7 -8 -9 -8 -6 -6 -6 -6 -6 -6 -5 -5 -4 -4 -5 -5 -5 -5 -5 -5 -4 -5 -4 -4 -4 -5 -4
5 4 4 5 5 8 7 7 7 6 7 7 7 6 4 2 1 1 -2 -4 -4 -5 -5 -5 -6 -5 -6 -7 -8 -8 -7 -6 -5 -5 -5 -5 -5 -4 -5 -5 -5 -5 -5 -5 -6 -5 -5 -5 -5 -4 -4 -5 -5 -5
6 5 6 5 6 7 6 7 6 6 6 6 5 6 5 4 4 2 -2 -4 -4 -5 -5 -5 -5 -5 -6 -7 -8 -8 -7 -8 -9 -8 -7 -6 -5 -5 -6 -5 -5 -5 -5 -5 -5 -5 -5 -5 -5 -5 -5 -5 -5 -6
Wind_Speed
14 16 18 18 17 15 19 21 18 15 12 10 10 10 7 8 6 7 3 4 3 2 5 3 3 5 6 5 3 9 7 2 2 2 2 2 3 2 3 2 3 7 6 7 9 9 15 8 17 6 4 13 9 4
13 15 17 17 15 14 17 19 16 12 10 9 7 8 5 8 6 5 1 2 2 1 3 4 4 6 7 6 7 6 5 5 3 3 2 3 2 3 7 2 1 2 4 2 5 4 4 17 25 16 10 6 4 10
13 15 16 16 14 12 15 17 13 11 9 8 4 5 6 7 5 4 3 1 2 3 4 3 4 2 4 5 5 5 3 7 2 5 3 2 2 3 4 3 3 2 8 4 3 6 11 12 15 17 5 5 8 11
12 14 15 15 13 10 13 15 12 9 8 6 5 2 4 3 3 4 4 2 1 3 5 5 4 3 4 5 5 6 12 7 6 3 4 2 3 7 3 3 2 3 8 6 5 6 16 8 17 15 12 10 11 11
11 13 14 14 12 9 10 13 11 8 7 6 4 3 1 1 2 4 7 4 4 1 5 4 1 3 2 3 7 9 7 6 3 1 2 2 4 4 4 4 2 12 5 4 2 16 6 13 18 16 10 14 13 14
11 12 13 13 12 10 8 9 12 8 7 6 5 3 3 4 5 3 3 3 7 3 4 3 3 6 5 6 8 7 5 4 5 3 2 3 4 6 3 3 17 23 20 23 13 22 16 22 19 20 19 17 12 15
10 12 13 13 12 11 9 9 10 9 8 7 7 6 6 6 5 3 3 4 9 5 3 5 3 3 5 7 6 4 5 4 4 2 7 4 5 5 3 5 23 25 23 25 27 25 22 25 25 28 20 15 13 15
9 11 12 12 13 11 8 8 9 9 8 8 8 7 7 8 7 3 6 10 7 3 3 3 2 4 1 2 3 3 5 2 4 3 5 9 3 6 3 19 21 24 22 25 24 23 22 23 29 30 28 22 24 25
9 10 11 11 10 9 10 10 9 9 9 10 8 6 7 3 2 6 11 6 3 5 3 2 3 4 2 1 1 2 3 1 0 2 3 5 3 3 9 15 17 20 23 23 23 23 25 25 26 28 28 30 27 24
9 10 10 9 9 7 9 11 9 9 11 9 4 0 3 4 8 5 2 1 2 2 3 4 2 2 3 3 1 1 2 1 1 2 1 2 2 4 9 12 12 14 17 20 24 28 30 31 29 28 25 25 24 23
9 10 10 10 10 10 9 9 11 11 10 5 2 3 7 8 1 1 2 4 3 3 5 4 5 6 2 3 1 2 1 1 1 1 2 1 3 6 8 8 8 10 12 15 17 19 20 21 25 27 26 25 23 20
9 12 11 10 10 11 10 7 11 10 8 6 7 8 4 1 3 4 1 2 3 3 2 7 7 4 2 1 2 2 2 2 2 1 1 2 3 6 7 8 8 5 7 9 11 14 16 19 20 20 22 24 23 21
10 12 12 12 12 11 8 6 11 11 11 7 1 2 3 3 2 1 2 4 4 7 6 8 6 1 2 3 2 3 4 1 2 2 2 3 4 4 6 7 8 7 4 4 7 10 13 14 15 18 19 21 23 22
11 11 13 12 8 4 3 9 12 10 5 2 3 3 3 2 3 4 7 7 10 8 11 9 2 4 5 5 3 3 2 3 2 1 3 1 3 2 4 7 8 9 6 5 5 7 10 13 15 17 17 17 19 23
10 10 9 4 6 8 10 11 11 6 3 3 3 3 3 5 9 6 7 7 6 6 8 6 5 4 4 3 2 0 3 1 2 2 4 9 6 3 2 5 8 10 9 7 6 7 9 11 14 14 15 15 15 16
9 9 3 8 11 10 8 7 4 4 3 3 5 6 6 9 12 10 7 10 4 5 4 1 3 2 4 2 3 4 4 3 3 4 8 6 4 3 4 5 5 6 8 8 7 7 8 9 11 11 11 13 14 13
9 5 13 13 9 6 6 3 2 3 4 4 5 7 11 12 12 13 12 12 6 7 3 4 4 2 5 4 4 1 2 6 8 7 5 2 2 3 5 5 4 2 5 4 5 6 8 6 8 10 11 11 13 12
13 15 10 6 3 3 5 5 3 4 5 8 8 9 7 10 11 10 8 8 6 5 3 3 6 3 3 1 3 3 10 5 4 3 1 1 4 5 5 5 4 3 2 2 4 5 6 5 6 8 9 10 11 12
15 7 5 2 2 1 2 2 4 4 6 7 8 8 8 7 5 6 6 5 3 1 3 4 3 1 3 6 8 7 8 2 1 1 1 2 4 4 4 5 4 4 3 1 2 5 5 3 6 8 10 10 12 12
6 3 0 1 4 2 2 3 4 5 5 4 6 5 7 5 4 4 5 7 3 0 3 2 4 6 7 6 6 9 6 3 3 7 1 3 5 5 5 5 4 2 6 3 2 3 1 2 4 6 6 8 10 9
2 1 4 1 2 5 3 3 4 5 6 5 5 7 5 3 3 4 5 5 3 4 3 1 3 5 6 7 11 9 6 4 3 6 6 7 6 5 5 4 3 5 5 6 1 0 2 3 4 4 5 7 7 6
3 4 2 2 2 3 3 4 4 5 4 5 6 5 3 2 3 5 2 4 5 4 3 4 6 7 7 8 8 4 3 4 2 1 2 3 3 5 5 5 4 4 3 1 3 0 2 2 3 3 4 5 6 7
4 1 2 3 2 3 3 3 3 2 3 3 5 2 1 2 3 2 1 4 4 1 1 4 6 5 5 7 5 2 2 2 1 3 3 4 3 2 1 3 4 3 3 1 1 2 2 2 2 1 3 3 4 5
4 2 2 3 4 3 2 3 3 3 3 3 2 3 2 3 3 1 2 4 6 3 4 6 6 8 8 6 8 7 2 2 3 5 2 2 6 2 0 2 3 4 4 4 2 1 2 2 3 3 2 3 4 4
2 3 3 4 4 3 4 3 3 2 2 2 2 1 1 1 1 2 2 4 6 5 5 6 6 6 9 12 12 7 9 2 3 8 1 3 4 4 3 2 4 2 2 2 1 2 2 3 3 4 4 3 4 4
1 5 6 4 3 4 2 2 2 2 3 2 1 1 1 2 1 1 2 4 6 6 6 6 8 9 9 7 11 11 8 4 6 4 2 5 7 3 2 1 6 5 4 2 2 3 5 6 4 5 7 5 7 6
2 4 5 5 3 2 3 3 4 4 3 2 2 2 1 2 2 3 2 3 5 6 5 5 6 6 8 10 10 8 6 4 4 7 10 5 7 4 3 4 6 5 5 4 2 4 4 5 5 5 6 6 5 6
5 3 6 6 5 6 4 3 3 3 3 3 2 3 1 1 3 3 3 2 3 5 6 7 7 7 8 9 9 8 9 12 12 11 11 8 8 9 7 7 7 7 6 6 6 4 5 6 6 5 5 5 4 5
4 4 5 6 6 4 4 4 3 3 3 5 2 2 3 4 6 6 6 5 5 5 4 4 5 6 8 9 9 7 5 2 2 1 3 7 8 6 5 4 4 6 6 6 7 8 9 8 7 6 7 7 6 5
4 8 5 4 4 4 3 6 3 3 4 4 4 5 6 7 6 8 5 7 6 4 4 4 4 4 6 6 7 7 6 5 4 4 4 8 8 7 7 8 7 7 7 8 8 8 8 7 6 6 6 5 5 5
3 5 4 6 5 3 3 4 3 2 3 4 3 4 6 7 8 8 7 7 7 7 6 5 5 5 5 5 5 4 7 8 9 7 8 8 9 8 7 6 6 6 7 7 6 5 4 4 4 4 4 4 4 4
5 6 5 4 3 2 2 2 2 2 0 3 3 5 7 7 7 10 9 11 8 6 6 5 4 6 6 7 8 9 11 9 10 11 11 10 9 8 7 6 6 5 5 5 5 4 4 3 4 4 3 4 4 5
4 6 7 5 3 2 2 2 1 2 3 2 6 8 9 7 4 7 11 13 8 8 8 8 9 8 7 8 9 10 10 9 10 9 10 10 11 10 7 6 5 5 4 4 4 4 4 4 3 3 3 4 4 5
Wind_Direction
338 343 344 351 351 352 355 355 1 7 8 30 51 63 93 116 113 113 113 95 113 315 337 336 305 306 299 268 289 311 312 59 305 288 301 342 287 305 274 62 213 186 185 212 233 244 255 18 305 227 35 91 101 141
334 340 344 349 351 353 357 357 1 10 360 16 59 89 106 114 116 92 322 258 269 217 322 330 308 293 279 298 315 309 314 354 320 307 337 299 305 315 315 39 46 200 219 282 220 228 339 296 282 328 2 74 67 78
330 337 342 348 349 355 359 2 4 10 6 14 26 119 107 83 70 71 40 336 57 295 267 11 33 327 5 315 288 297 3 353 25 324 294 291 319 323 334 23 311 218 223 242 268 214 279 272 308 316 357 24 46 65
327 335 341 347 346 354 2 3 1 15 10 7 16 46 126 96 37 12 22 351 328 289 289 105 62 65 56 37 13 293 284 296 278 291 330 332 317 359 322 294 286 274 290 282 258 270 322 232 324 353 360 34 47 53
325 333 341 345 345 346 356 360 5 360 358 358 356 17 10 356 336 295 286 293 348 305 323 329 197 247 303 350 348 339 322 315 322 267 10 7 312 316 295 297 354 359 352 341 304 318 321 294 340 352 14 31 30 40
322 330 339 345 344 335 332 346 359 350 334 332 324 331 348 337 331 349 297 298 330 319 291 286 249 248 265 323 335 330 344 357 34 28 36 0 13 333 338 338 360 18 18 11 350 350 360 3 7 15 25 25 39 52
321 330 339 344 340 335 331 328 345 341 334 320 301 300 295 300 319 261 297 275 317 314 266 277 245 248 280 286 262 292 330 13 9 22 13 18 356 338 346 352 3 14 16 13 11 13 11 12 10 26 34 43 48 48
320 331 341 343 350 351 337 330 337 336 331 321 303 292 295 292 296 302 278 299 303 257 248 275 5 184 279 300 297 304 280 268 28 20 356 19 359 17 16 359 7 12 12 15 16 15 19 20 29 27 35 43 48 48
319 334 339 346 355 1 357 349 341 333 331 324 309 295 293 243 237 254 301 290 264 199 271 246 292 358 189 231 329 298 292 311 285 49 16 354 355 25 339 350 8 16 19 16 19 21 27 27 26 25 29 30 37 34
318 333 333 336 339 343 353 356 340 333 335 325 317 14 235 240 297 299 299 292 239 238 231 251 265 315 239 191 204 244 339 9 328 41 183 55 281 29 5 359 4 20 21 21 25 24 25 24 25 29 24 27 29 28
317 324 324 329 324 314 309 340 338 329 332 338 271 257 260 302 312 227 260 230 172 233 206 240 219 308 284 280 150 186 155 259 326 307 330 336 318 9 7 12 6 14 21 28 31 33 32 30 27 29 30 25 24 23
315 316 319 322 314 306 305 305 328 324 306 282 271 279 283 252 233 258 270 220 231 289 307 300 346 283 257 239 254 199 181 209 235 139 317 323 295 16 2 3 4 1 14 20 30 31 32 34 34 30 27 28 28 30
311 314 320 318 307 298 298 300 322 322 309 311 273 237 228 200 320 244 273 289 304 333 328 306 312 201 194 227 228 236 234 42 136 190 215 238 7 0 3 358 359 351 329 0 13 24 28 31 33 33 33 30 28 28
310 318 327 326 311 290 296 311 319 315 302 254 244 296 249 219 254 318 315 322 320 297 312 314 239 205 196 216 204 252 50 225 271 28 258 32 31 324 352 355 350 355 349 329 348 4 15 19 20 22 26 30 30 31
312 321 324 350 339 312 303 302 305 283 255 261 249 253 236 314 294 290 298 293 293 287 308 278 252 233 195 232 217 135 206 1 220 266 350 21 348 261 316 343 350 353 355 350 351 352 3 12 14 18 21 23 30 33
323 326 296 316 318 310 302 310 277 230 252 243 239 258 275 278 325 322 283 287 313 306 309 30 280 250 257 267 195 55 27 264 347 336 346 348 29 46 336 324 321 352 353 358 360 1 4 17 19 19 22 23 25 26
339 315 307 309 302 291 296 276 239 234 249 236 241 275 293 297 307 329 327 326 308 293 10 61 278 307 25 357 52 275 255 318 324 339 346 31 20 7 355 336 296 313 356 2 6 14 16 17 22 26 27 23 25 27
330 320 314 317 262 279 283 202 232 247 250 253 269 304 315 302 309 330 340 333 341 334 342 65 28 37 31 20 233 243 295 302 350 4 15 351 324 322 324 332 308 229 290 10 17 2 1 9 14 26 27 21 23 25
321 311 308 283 234 267 237 232 216 266 256 287 289 306 312 321 326 344 356 354 10 55 102 82 69 160 219 233 266 288 296 338 344 63 338 329 330 321 315 327 298 226 221 205 344 9 20 30 18 10 11 13 18 25
311 308 80 268 250 217 249 222 225 265 276 334 302 322 327 336 344 17 30 3 352 294 88 106 212 214 260 317 279 297 294 270 344 289 274 29 345 333 319 311 303 223 208 198 210 342 82 111 45 22 25 24 16 25
327 333 328 250 239 220 258 252 245 264 297 286 314 323 330 353 29 30 16 6 41 12 31 306 302 319 311 309 311 293 259 216 309 315 351 347 349 347 344 324 278 240 226 199 126 83 57 60 38 45 39 29 31 39
314 303 286 244 223 241 257 239 262 281 268 295 297 317 325 358 16 16 337 21 38 18 23 12 8 349 347 349 339 319 221 213 287 255 10 8 37 55 17 31 75 116 149 150 266 293 129 75 48 43 52 56 57 52
318 272 233 219 231 233 246 250 256 245 268 301 301 280 88 23 11 342 84 31 23 1 352 343 357 342 344 346 2 11 206 253 230 184 156 111 30 167 344 20 6 348 354 22 307 211 162 191 162 93 61 64 58 51
304 216 222 228 218 252 233 231 233 256 269 279 301 330 31 6 343 320 56 23 18 343 324 342 353 353 1 356 1 357 328 210 177 153 249 307 164 135 20 55 57 34 19 329 302 209 148 124 123 135 95 68 54 35
261 208 215 233 224 235 228 221 226 241 279 318 290 284 57 314 304 45 23 26 7 6 355 350 320 353 351 1 8 358 350 275 222 314 173 184 177 134 98 302 324 54 24 13 51 168 169 159 155 173 112 60 42 34
240 201 197 216 189 232 227 266 232 283 296 265 222 73 262 293 279 45 55 12 349 356 352 351 349 350 8 11 355 353 353 321 307 342 91 125 129 68 263 127 100 53 25 12 13 82 91 78 83 121 130 96 72 60
259 208 210 225 250 249 254 252 269 257 248 234 181 199 238 297 13 75 66 18 355 352 12 25 31 38 23 8 360 359 6 17 69 107 121 88 81 68 80 100 96 71 49 57 97 102 109 119 132 108 87 94 73 68
248 247 229 185 216 233 265 257 237 228 224 190 198 216 245 25 67 75 40 38 68 77 83 84 76 58 40 35 41 50 75 97 99 100 102 90 73 91 90 95 81 76 70 98 92 98 99 103 95 88 91 92 62 55
235 221 210 229 230 230 234 237 250 220 208 202 235 180 142 110 129 142 139 133 116 97 90 78 64 50 43 43 53 65 68 38 321 221 109 106 94 76 71 61 105 96 81 69 108 105 91 88 86 85 76 77 80 62
229 199 226 230 229 235 229 214 256 230 217 227 177 120 124 138 156 152 144 137 131 123 106 87 70 44 41 46 52 54 48 47 68 75 93 110 103 100 97 114 96 93 92 96 106 100 89 79 77 79 78 72 65 56
207 196 234 244 258 273 246 233 241 228 211 205 200 211 163 155 163 155 160 156 144 133 117 98 80 59 49 44 39 50 65 64 66 96 116 120 124 113 108 113 112 104 108 100 107 107 95 75 88 89 74 60 41 38
208 219 237 248 250 267 194 223 230 210 247 266 219 184 163 164 172 192 182 170 153 150 145 122 111 94 76 70 74 97 109 102 92 89 95 115 125 121 116 115 116 115 116 103 99 100 100 89 87 79 64 44 34 25
237 243 247 264 218 202 185 180 207 128 125 337 267 230 211 200 182 194 182 170 168 166 149 139 126 114 103 102 107 109 107 109 118 124 129 135 136 125 115 119 121 120 119 118 111 99 97 90 84 74 49 32 14 0
Height
1562 1559 1556 1552 1548 1545 1541 1536 1531 1527 1525 1521 1519 1519 1518 1517 1518 1518 1519 1518 1519 1519 1515 1514 1514 1513 1510 1508 1506 1503 1495 1495 1496 1491 1486 1482 1478 1475 1471 1469 1464 1464 1471 1470 1472 1472 1461 1451 1451 1443 1420 1423 1426 1428
1560 1557 1554 1550 1546 1543 1540 1535 1531 1527 1526 1523 1521 1520 1521 1519 1519 1519 1519 1518 1518 1518 1517 1514 1513 1511 1510 1509 1507 1504 1502 1498 1498 1496 1491 1489 1481 1477 1472 1461 1474 1472 1472 1467 1469 1454 1453 1452 1448 1435 1428 1426 1426 1424
1557 1555 1552 1548 1545 1542 1539 1535 1531 1529 1526 1524 1523 1522 1521 1521 1521 1520 1519 1518 1518 1519 1515 1512 1513 1511 1509 1507 1506 1505 1500 1499 1498 1498 1495 1491 1485 1484 1473 1471 1474 1473 1473 1468 1464 1455 1453 1448 1446 1434 1431 1427 1424 1425
1555 1553 1550 1546 1543 1541 1538 1535 1532 1528 1527 1525 1523 1522 1522 1521 1521 1521 1520 1519 1519 1519 1513 1511 1510 1510 1507 1506 1505 1503 1502 1500 1498 1496 1494 1492 1489 1487 1480 1478 1477 1476 1470 1465 1457 1455 1449 1446 1442 1434 1431 1426 1425 1426
1552 1550 1547 1544 1542 1539 1537 1535 1531 1529 1527 1526 1524 1523 1522 1522 1520 1520 1519 1519 1518 1522 1514 1508 1509 1508 1506 1506 1505 1503 1501 1498 1494 1491 1493 1494 1493 1490 1483 1478 1474 1474 1469 1463 1455 1453 1449 1444 1435 1432 1432 1426 1425 1424
1549 1547 1544 1542 1539 1536 1535 1534 1531 1528 1527 1525 1524 1523 1522 1521 1520 1520 1519 1518 1517 1517 1517 1509 1506 1504 1504 1502 1503 1502 1500 1498 1495 1493 1493 1491 1493 1492 1484 1479 1478 1476 1472 1466 1461 1451 1445 1441 1435 1429 1426 1424 1426 1425
1546 1544 1541 1539 1537 1534 1533 1532 1529 1527 1525 1523 1523 1522 1521 1520 1520 1521 1520 1518 1516 1515 1516 1507 1502 1502 1501 1500 1500 1501 1499 1498 1496 1494 1491 1493 1491 1490 1486 1482 1476 1473 1472 1468 1460 1453 1448 1440 1436 1432 1432 1426 1430 1427
1543 1541 1539 1536 1534 1532 1530 1529 1527 1526 1524 1522 1521 1519 1519 1518 1518 1518 1515 1514 1513 1515 1514 1509 1498 1501 1501 1500 1500 1498 1496 1495 1496 1494 1493 1491 1488 1491 1490 1484 1480 1477 1473 1470 1465 1460 1455 1447 1442 1436 1431 1431 1430 1430
1540 1539 1536 1534 1532 1530 1529 1528 1526 1524 1522 1520 1519 1517 1517 1516 1516 1515 1512 1511 1510 1514 1510 1509 1503 1496 1500 1500 1499 1499 1497 1494 1496 1495 1495 1495 1496 1496 1491 1487 1485 1481 1478 1474 1469 1464 1460 1456 1450 1445 1441 1433 1434 1432
1537 1536 1533 1532 1530 1529 1528 1526 1525 1523 1520 1518 1517 1517 1517 1514 1513 1513 1512 1512 1511 1510 1509 1506 1504 1499 1501 1498 1497 1498 1498 1497 1496 1493 1495 1498 1497 1492 1491 1489 1486 1484 1481 1477 1473 1466 1461 1456 1452 1451 1450 1446 1441 1438
1534 1533 1530 1529 1528 1527 1525 1525 1523 1521 1519 1518 1518 1517 1513 1512 1512 1511 1510 1509 1505 1503 1503 1501 1501 1496 1497 1496 1495 1498 1498 1498 1499 1494 1491 1497 1495 1489 1490 1489 1487 1485 1483 1481 1478 1475 1473 1468 1462 1458 1456 1450 1446 1447
1531 1529 1527 1526 1524 1523 1523 1522 1521 1520 1518 1518 1516 1514 1512 1512 1512 1509 1502 1502 1500 1497 1495 1496 1494 1497 1497 1497 1496 1497 1495 1497 1490 1490 1488 1494 1489 1488 1488 1488 1487 1486 1485 1484 1483 1480 1477 1474 1470 1468 1464 1461 1457 1451
1527 1525 1524 1522 1520 1519 1519 1520 1519 1517 1515 1513 1514 1514 1512 1510 1508 1501 1510 1502 1493 1493 1492 1492 1492 1495 1496 1497 1497 1495 1486 1481 1488 1484 1496 1491 1486 1487 1487 1487 1487 1486 1485 1484 1483 1483 1481 1479 1477 1473 1468 1465 1462 1459
1524 1522 1520 1518 1517 1517 1517 1517 1516 1515 1514 1514 1512 1512 1505 1499 1496 1494 1493 1493 1493 1493 1491 1490 1489 1494 1492 1491 1485 1482 1483 1484 1480 1489 1493 1483 1486 1487 1487 1486 1486 1485 1485 1484 1483 1482 1481 1479 1476 1473 1471 1470 1466 1459
1521 1519 1518 1517 1517 1516 1515 1514 1513 1513 1513 1512 1510 1509 1499 1496 1495 1493 1494 1493 1491 1490 1489 1487 1485 1486 1484 1482 1480 1482 1482 1484 1485 1484 1481 1483 1488 1487 1487 1487 1486 1484 1483 1483 1483 1482 1480 1479 1476 1475 1474 1472 1470 1469
1518 1516 1516 1515 1514 1513 1512 1511 1511 1511 1510 1510 1507 1501 1495 1495 1488 1487 1486 1487 1487 1488 1488 1487 1487 1480 1480 1475 1476 1480 1493 1491 1485 1485 1484 1486 1488 1488 1488 1487 1486 1486 1484 1483 1483 1483 1482 1480 1479 1478 1477 1475 1472 1470
1515 1515 1513 1511 1510 1510 1510 1510 1510 1509 1508 1505 1498 1496 1496 1494 1490 1489 1489 1487 1487 1487 1486 1492 1488 1481 1482 1484 1495 1500 1494 1490 1486 1484 1486 1489 1489 1488 1488 1487 1486 1486 1485 1484 1484 1483 1483 1482 1481 1480 1479 1478 1474 1472
1512 1510 1508 1507 1507 1507 1507 1508 1509 1507 1503 1498 1496 1493 1493 1493 1491 1491 1491 1490 1489 1488 1488 1491 1496 1498 1501 1501 1500 1494 1491 1487 1487 1486 1487 1488 1488 1488 1487 1486 1485 1485 1484 1485 1485 1484 1483 1482 1481 1480 1480 1478 1475 1474
1509 1507 1506 1506 1507 1507 1507 1507 1507 1502 1497 1494 1493 1493 1493 1492 1491 1490 1490 1489 1488 1488 1490 1493 1497 1500 1498 1497 1492 1490 1488 1486 1486 1486 1487 1488 1487 1486 1485 1484 1484 1484 1484 1484 1485 1483 1483 1483 1482 1480 1478 1477 1476 1475
1506 1505 1505 1505 1506 1506 1506 1505 1504 1502 1496 1493 1493 1491 1492 1491 1491 1491 1490 1489 1488 1488 1488 1494 1495 1494 1492 1490 1490 1489 1486 1487 1488 1487 1484 1484 1485 1485 1484 1483 1482 1482 1482 1484 1484 1484 1483 1483 1483 1482 1482 1481 1478 1477
1504 1504 1504 1504 1504 1504 1505 1503 1501 1499 1496 1493 1493 1492 1490 1491 1491 1490 1490 1489 1487 1488 1489 1491 1491 1491 1490 1489 1487 1486 1485 1486 1488 1485 1485 1484 1485 1484 1483 1481 1480 1481 1480 1481 1482 1483 1483 1483 1484 1483 1483 1483 1481 1480
1503 1503 1503 1503 1503 1503 1503 1501 1500 1498 1496 1492 1491 1491 1489 1489 1490 1491 1491 1488 1490 1491 1491 1490 1489 1489 1487 1487 1485 1483 1484 1485 1485 1486 1486 1485 1485 1485 1485 1482 1480 1479 1479 1480 1481 1482 1483 1483 1484 1484 1484 1484 1483 1483
1502 1502 1502 1502 1503 1502 1501 1498 1498 1495 1492 1489 1489 1488 1489 1490 1492 1491 1490 1491 1491 1492 1492 1492 1490 1489 1487 1486 1484 1484 1483 1484 1484 1485 1485 1485 1486 1486 1485 1484 1482 1482 1482 1481 1482 1481 1482 1484 1485 1485 1485 1485 1485 1484
1501 1501 1501 1500 1500 1498 1497 1495 1494 1493 1491 1489 1487 1486 1488 1490 1492 1489 1488 1491 1492 1493 1493 1492 1491 1488 1485 1484 1483 1483 1484 1483 1483 1484 1485 1485 1484 1486 1486 1485 1485 1485 1484 1483 1482 1482 1483 1483 1484 1485 1485 1486 1486 1485
1501 1500 1500 1497 1497 1496 1492 1490 1490 1490 1488 1488 1487 1485 1488 1490 1487 1487 1489 1491 1492 1491 1492 1491 1489 1487 1486 1484 1484 1483 1483 1483 1483 1483 1482 1482 1484 1486 1487 1486 1485 1485 1485 1484 1482 1482 1483 1484 1485 1486 1486 1487 1486 1486
1498 1495 1496 1491 1492 1491 1488 1487 1487 1487 1487 1486 1485 1488 1489 1488 1487 1487 1489 1492 1491 1492 1491 1490 1489 1487 1485 1486 1484 1483 1483 1483 1482 1482 1483 1484 1485 1487 1486 1486 1485 1486 1485 1485 1484 1484 1485 1486 1487 1486 1487 1488 1487 1487
1495 1490 1491 1491 1491 1490 1489 1489 1488 1487 1484 1483 1483 1485 1486 1485 1485 1490 1492 1493 1493 1491 1490 1489 1489 1488 1488 1487 1486 1484 1483 1482 1481 1482 1485 1486 1486 1487 1486 1487 1487 1488 1487 1486 1486 1486 1487 1488 1488 1489 1489 1489 1490 1489
1490 1489 1488 1488 1488 1487 1486 1485 1484 1482 1481 1482 1484 1482 1481 1482 1488 1492 1493 1493 1492 1491 1491 1490 1490 1489 1488 1487 1486 1485 1485 1485 1485 1486 1487 1487 1488 1488 1489 1489 1489 1489 1488 1488 1488 1488 1489 1489 1490 1491 1491 1491 1492 1492
1487 1486 1487 1485 1486 1485 1484 1481 1479 1479 1479 1480 1479 1479 1483 1486 1489 1489 1489 1491 1491 1492 1492 1492 1491 1491 1490 1489 1488 1487 1487 1487 1487 1487 1487 1489 1490 1491 1490 1490 1490 1491 1491 1490 1490 1490 1491 1491 1492 1493 1493 1493 1494 1493
1483 1483 1483 1481 1481 1478 1477 1478 1478 1477 1477 1479 1480 1481 1484 1486 1487 1487 1489 1489 1491 1492 1492 1492 1492 1492 1491 1490 1490 1489 1489 1488 1488 1487 1487 1488 1490 1491 1492 1492 1493 1493 1493 1493 1493 1494 1494 1494 1495 1495 1495 1495 1495 1495
1480 1481 1480 1478 1476 1475 1476 1475 1475 1475 1477 1478 1479 1481 1482 1485 1486 1486 1488 1489 1490 1490 1491 1492 1492 1492 1492 1491 1490 1490 1490 1490 1488 1488 1489 1490 1491 1492 1493 1494 1495 1495 1495 1495 1495 1496 1496 1496 1496 1496 1496 1496 1496 1496
1477 1477 1475 1474 1472 1475 1474 1475 1475 1475 1477 1479 1480 1481 1481 1482 1483 1482 1484 1486 1488 1490 1490 1491 1491 1491 1491 1491 1490 1489 1490 1492 1492 1492 1492 1493 1493 1494 1495 1495 1496 1497 1497 1497 1497 1497 1497 1497 1497 1497 1497 1498 1497 1497
1474 1473 1473 1472 1472 1473 1474 1475 1475 1476 1476 1477 1478 1479 1478 1478 1480 1482 1481 1484 1487 1488 1489 1490 1490 1490 1490 1491 1491 1490 1491 1491 1491 1492 1492 1493 1493 1494 1496 1497 1497 1497 1498 1498 1498 1498 1498 1498 1498 1498 1498 1498 1498 1497